Regional Weather Roundup
Issued by NWS

Home | Current Version | Previous Version | Graphics & Text | Print | Product List | Glossary On
Versions: 1 2 3 4 5 6 7 8 9 10 11 12 13 14 15 16 17 18 19 20 21 22 23 24 25 26 27 28 29 30 31 32 33 34 35 36 37 38 39 40 41 42 43 44 45 46 47 48 49 50
000
ASUS44 KMEG 222310
RWRTN
TENNESSEE HOURLY STATE WEATHER ROUNDUP
NATIONAL WEATHER SERVICE MEMPHIS TN
500 PM CST WED FEB 22 2017

TNZ002-004-019-021-049-052-054-088>092-230000-
WEST TENNESSEE

CITY           SKY/WX    TMP DP  RH WIND       PRES   REMARKS
MEMPHIS INTL   PTCLDY    73  56  54 S6        29.79F
NWS MEMPHIS      N/A     74 N/A N/A MISG        N/A
JACKSON        MOCLDY    70  58  65 S6        29.81S
UNION CITY     CLOUDY    70  55  60 CALM      29.79S
PARIS          CLOUDY    66  55  68 SW8       29.81S
HUNTINGDON     CLOUDY    70  57  64 S7        29.81R
$$

TNZ008-025-027-028-033-062-065-066-230000-
NORTH MIDDLE TENNESSEE

CITY           SKY/WX    TMP DP  RH WIND       PRES   REMARKS
NASHVILLE      MOCLDY    67  56  67 S6        29.85R
PORTLAND       CLOUDY    68  57  68 S9        29.84S
CLARKSVILLE    CLOUDY    70  54  56 S10       29.80S
SMYRNA         CLOUDY    67  58  72 CALM      29.85R
COOKEVILLE     CLOUDY    66  55  68 S8        29.85S
GALLATIN       CLOUDY    68  57  68 S3        29.87R
CROSSVILLE     MOCLDY    61  54  77 CALM      29.89S
$$

TNZ061-075-076-078-094-096-097-230000-
SOUTH MIDDLE TENNESSEE

CITY           SKY/WX    TMP DP  RH WIND       PRES   REMARKS
FAYETTEVILLE   CLOUDY    66  57  72 SE6       29.85S
TULLAHOMA      PTCLDY    64  55  72 SE7       29.86F
WINCHESTER     MOCLDY    64  57  77 E3        29.87R
MCMINNVILLE    CLOUDY    66  57  72 S5        29.86S
COLUMBIA       CLOUDY    66  66 100 CALM      29.83S
SHELBYVILLE    MOCLDY    66  59  77 CALM      29.86R
$$

TNZ017-018-042-046-047-230000-
NORTHEAST TENNESSEE

CITY           SKY/WX    TMP DP  RH WIND       PRES   REMARKS
TRI CITIES     CLOUDY    57  55  93 E6        29.91S
ELIZABETHTON   CLOUDY    57  57 100 S3        29.92R
$$

TNZ012-013-036-069-073-074-230000-
CENTRAL EAST TENNESSEE

CITY           SKY/WX    TMP DP  RH WIND       PRES   REMARKS
KNOXVILLE      CLOUDY    59  55  87 N10       29.88R
OAK RIDGE      PTCLDY    60  55  83 E3        29.90S
GATLINBURG     CLOUDY    57  55  94 CALM      29.89R
MORRISTOWN     CLEAR     59  55  88 E5        29.89S
JACKSBORO      CLOUDY    59  55  88 CALM      29.92F
$$

TNZ083-085-099-230000-
SOUTHEAST TENNESSEE

CITY           SKY/WX    TMP DP  RH WIND       PRES   REMARKS
CHATTANOOGA    MOCLDY    68  56  65 VRB3      29.86R
$$

SKY/WX REPORTED AS FAIR MEANS FEW OR NO CLOUDS BELOW
12 THOUSAND FEET.





USA.gov is the U.S. government's official web portal to all federal, state and local government web resources and services.